Hemavan Airport, Sweden

5:37 PM CEST on April 20, 2018 (GMT +0200)
Hemavan

Weather History for ESUT - March, 2014

Change the Weather History Date:

Saturday, March 15, 2014

  Actual Average (ENRA) Record (ENRA)
Temperature  
Mean Temperature 18 °F -  
Max Temperature 26 °F 30 °F 43 °F (2016)
Min Temperature 10 °F 19 °F -6 °F (2018)
Degree Days  
Heating Degree Days 47    
Moisture  
Dew Point 18 °F    
Average Humidity 78    
Maximum Humidity 93    
Minimum Humidity 54    
Precipitation  
Precipitation 0.00 in - - ()
Sea Level Pressure  
Sea Level Pressure 29.15 in    
Wind  
Wind Speed 8 mph ()    
Max Wind Speed 18 mph    
Max Gust Speed 31 mph    
Visibility 7.0 miles    
Events Rain , Snow    
Averages and records for this station are not official NWS values.
T = Trace of Precipitation, MM = Missing Value Source: Averaged Metar Reports

Daily Weather History Graph

Daily Weather History Graph

Search for Another Location

Airport or City:

Astronomy

Mar. 15, 2014 Rise Set
Actual Time 6:19 AM CET 5:59 PM CET
Civil Twilight 5:29 AM CET 6:49 PM CET
Nautical Twilight 4:28 AM CET 7:50 PM CET
Astronomical Twilight 3:20 AM CET 8:59 PM CET
Moon 4:50 PM CET (3/15) 5:42 AM CET (3/15)
Length of Visible Light 13h 20m
Length of Day
11h 39m
Waxing Gibbous, 98% of the Moon is Illuminated
Mar 15
Waxing Gibbous
Mar 16
Full
Mar 24
Last Quarter
Mar 30
New
Apr 7
First Quarter

Hourly Weather History & Observations

Time (CET) Temp. Windchill Dew Point Humidity Pressure Visibility Wind Dir Wind Speed Gust Speed Precip Events Conditions
12:00 AM 26 °F - 22 °F 79% 29.21 in 19 mi Calm Calm - - Snow Light Snow Showers
12:20 AM 26.6 °F 18.2 °F 21.2 °F 80% 29.12 in 6.2 mi NW 8.1 mph - N/A   Overcast
12:50 AM 24.8 °F 20.5 °F 23.0 °F 93% 29.12 in 2.8 mi Variable 3.5 mph - N/A Snow Light Snow
1:00 AM 25 °F - 22 °F 86% 29.21 in 3 mi Calm Calm - - Snow Light Snow Showers
1:20 AM 24.8 °F 20.5 °F 23.0 °F 93% 29.12 in 2.8 mi SE 3.5 mph - N/A Snow Light Snow
1:50 AM 26.6 °F 14.7 °F 19.4 °F 74% 29.12 in 6.2 mi NW 15.0 mph - N/A   Overcast
2:00 AM 27 °F - 20 °F 64% 29.19 in 22 mi NW 13.4 mph - - Snow Snow
2:20 AM 26.6 °F 14.7 °F 19.4 °F 74% 29.09 in 6.2 mi NW 15.0 mph - N/A   Overcast
2:50 AM 26.6 °F 13.8 °F 21.2 °F 80% 29.09 in 6.2 mi NW 17.3 mph - N/A   Mostly Cloudy
3:00 AM 26 °F - 21 °F 72% 29.19 in 12 mi NW 13.4 mph - -   Light Freezing Rain
3:20 AM 24.8 °F 13.4 °F 21.2 °F 86% 29.09 in 6.2 mi West 12.7 mph - N/A Rain Light Freezing Rain
3:50 AM 26.6 °F 14.3 °F 19.4 °F 74% 29.09 in 6.2 mi WNW 16.1 mph - N/A   Mostly Cloudy
4:00 AM 25 °F - 20 °F 76% 29.19 in 31 mi NNW 13.4 mph - -   Light Freezing Rain
4:20 AM 24.8 °F 12.4 °F 19.4 °F 80% 29.09 in 6.2 mi WNW 15.0 mph - N/A   Light Freezing Drizzle
4:50 AM 24.8 °F 11.9 °F 19.4 °F 80% 29.09 in 6.2 mi WNW 16.1 mph - N/A   Partly Cloudy
5:00 AM 25 °F - 20 °F 73% 29.19 in 9 mi NW 15.7 mph - -   Light Freezing Rain
5:20 AM 24.8 °F 11.5 °F 19.4 °F 80% 29.09 in 6.2 mi WNW 17.3 mph - N/A   Mostly Cloudy
5:50 AM 24.8 °F 16.1 °F 19.4 °F 80% 29.09 in 6.2 mi NW 8.1 mph - N/A Snow Snow Grains
6:00 AM 26 °F - 20 °F 71% 29.19 in 25 mi NW 13.4 mph - - Snow Light Snow Showers
6:20 AM 24.8 °F 11.1 °F 19.4 °F 80% 29.09 in 6.2 mi NW 18.4 mph 31.1 mph N/A   Scattered Clouds
6:50 AM 24.8 °F 14.6 °F 17.6 °F 74% 29.09 in 6.2 mi NW 10.4 mph - N/A   Overcast
7:00 AM 25 °F - 18 °F 66% 29.20 in 28 mi NW 8.9 mph - -   Unknown Precipitation
7:20 AM 24.8 °F 13.4 °F 19.4 °F 80% 29.12 in 6.2 mi NNW 12.7 mph - N/A   Overcast
7:50 AM 24.8 °F 14.0 °F 19.4 °F 80% 29.12 in 6.2 mi NW 11.5 mph - N/A   Overcast
8:00 AM 26 °F - 19 °F 67% 29.20 in 25 mi NW 11.2 mph - - Snow Light Snow
8:20 AM 24.8 °F 12.9 °F 19.4 °F 80% 29.12 in 6.2 mi WNW 13.8 mph - N/A   Light Freezing Drizzle
8:50 AM 24.8 °F 12.4 °F 19.4 °F 80% 29.12 in 6.2 mi WNW 15.0 mph - N/A   Mostly Cloudy
9:00 AM 25 °F - 20 °F 73% 29.20 in 4 mi NW 13.4 mph - -   Mostly Cloudy
9:20 AM 24.8 °F 14.0 °F 21.2 °F 86% 29.12 in 3.1 mi WNW 11.5 mph - N/A Snow Light Snow
9:50 AM 24.8 °F 13.4 °F 21.2 °F 86% 29.12 in 3.1 mi WNW 12.7 mph - N/A Snow Light Snow
10:00 AM 25 °F - 22 °F 84% 29.21 in 2 mi WNW 13.4 mph - - Snow Light Snow
10:20 AM 24.8 °F 15.3 °F 23.0 °F 93% 29.12 in 0.7 mi NW 9.2 mph - N/A Snow Snow
10:50 AM 24.8 °F 17.9 °F 23.0 °F 93% 29.15 in 6.2 mi NW 5.8 mph - N/A Snow Light Snow
11:00 AM 26 °F - 22 °F 79% 29.23 in 31 mi NNW 4.5 mph - - Snow Light Snow
11:20 AM 26.6 °F 16.2 °F 21.2 °F 80% 29.15 in 6.2 mi NW 11.5 mph - N/A   Overcast
11:50 AM 26.6 °F 17.5 °F 21.2 °F 80% 29.15 in 6.2 mi NNW 9.2 mph - N/A   Overcast
12:00 PM 26 °F - 21 °F 72% 29.23 in 19 mi WNW 4.5 mph - - Rain Light Freezing Rain
12:20 PM 26.6 °F 18.2 °F 21.2 °F 80% 29.15 in 6.2 mi NW 8.1 mph - N/A   Overcast
12:50 PM 26.6 °F 16.8 °F 19.4 °F 74% 29.12 in 6.2 mi WNW 10.4 mph - N/A   Overcast
1:00 PM 25 °F - 20 °F 76% 29.22 in 11 mi WNW 8.9 mph - -   Unknown Precipitation
1:20 PM 26.6 °F 17.5 °F 21.2 °F 80% 29.12 in 6.2 mi NNW 9.2 mph - N/A   Overcast
1:50 PM 24.8 °F 11.9 °F 19.4 °F 80% 29.12 in 6.2 mi WNW 16.1 mph - N/A   Mostly Cloudy
2:00 PM 25 °F - 20 °F 73% 29.20 in 19 mi WNW 13.4 mph - - Rain Light Freezing Rain
2:20 PM 26.6 °F 16.8 °F 19.4 °F 74% 29.12 in 6.2 mi NW 10.4 mph - N/A   Mostly Cloudy
2:50 PM 26.6 °F 15.2 °F 19.4 °F 74% 29.12 in 6.2 mi NW 13.8 mph - N/A   Mostly Cloudy
3:00 PM 25 °F - 18 °F 66% 29.20 in 13 mi WNW 13.4 mph - -   Partly Cloudy
3:20 PM 24.8 °F 13.4 °F 17.6 °F 74% 29.12 in 6.2 mi WNW 12.7 mph - N/A   Overcast
3:50 PM 24.8 °F 16.9 °F 15.8 °F 69% 29.12 in 6.2 mi NW 6.9 mph - N/A   Overcast
4:00 PM 26 °F - 16 °F 54% 29.21 in 22 mi NW 8.9 mph - -   Scattered Clouds
4:20 PM 24.8 °F 14.0 °F 17.6 °F 74% 29.12 in 6.2 mi WNW 11.5 mph - N/A   Overcast
4:50 PM 24.8 °F 15.3 °F 15.8 °F 69% 29.12 in 6.2 mi NNW 9.2 mph - N/A   Overcast
5:00 PM 25 °F - 15 °F 55% 29.21 in 17 mi North 8.9 mph - -   Overcast
5:20 PM 24.8 °F 13.4 °F 14.0 °F 64% 29.12 in 6.2 mi NNW 12.7 mph - N/A   Overcast
5:50 PM 23.0 °F 11.7 °F 12.2 °F 63% 29.12 in 6.2 mi NW 11.5 mph - N/A   Scattered Clouds
6:00 PM 22 °F - 13 °F 58% 29.22 in 31 mi WNW 8.9 mph - -   Unknown Precipitation
6:20 PM 21.2 °F 10.1 °F 14.0 °F 74% 29.12 in 6.2 mi West 10.4 mph - N/A   Unknown
6:50 PM 21.2 °F - 14.0 °F 74% 29.12 in 6.2 mi Calm Calm - N/A   Mostly Cloudy
7:00 PM 20 °F - 14 °F 67% 29.24 in 14 mi Calm Calm - - Snow Snow Grains
7:20 PM 21.2 °F 16.4 °F 15.8 °F 80% 29.12 in 6.2 mi North 3.5 mph - N/A   Overcast
7:50 PM 19.4 °F - 14.0 °F 80% 29.12 in 6.2 mi West 2.3 mph - N/A   Overcast
8:00 PM 18 °F - 15 °F 81% 29.24 in 28 mi Calm Calm - - Snow Snow
8:20 PM 17.6 °F - 14.0 °F 86% 29.12 in 6.2 mi East 2.3 mph - N/A   Partly Cloudy
8:50 PM 17.6 °F 12.3 °F 14.0 °F 86% 29.12 in 6.2 mi NNW 3.5 mph - N/A   Overcast
9:00 PM 17 °F - 14 °F 84% 29.24 in 31 mi Calm Calm - - Snow Light Snow Showers
9:20 PM 15.8 °F 8.6 °F 12.2 °F 86% 29.12 in 6.2 mi North 4.6 mph - N/A   Partly Cloudy
9:50 PM 14.0 °F 8.2 °F 10.4 °F 86% 29.12 in 6.2 mi North 3.5 mph - N/A   Unknown
10:00 PM 15 °F - 13 °F 91% 29.24 in 28 mi Calm Calm - -   Scattered Clouds
10:20 PM 14.0 °F - 12.2 °F 93% 29.12 in 6.2 mi Variable 2.3 mph - N/A   Mostly Cloudy
10:50 PM 14.0 °F - 12.2 °F 93% 29.12 in 6.2 mi Variable 2.3 mph - N/A   Unknown
11:00 PM 11 °F - 9 °F 85% 29.25 in 31 mi Calm Calm - -   Scattered Clouds
11:20 PM 10.4 °F 2.2 °F 6.8 °F 85% 29.12 in 6.2 mi NNW 4.6 mph - N/A   Partly Cloudy
11:50 PM 12.2 °F 4.3 °F 10.4 °F 92% 29.12 in 6.2 mi West 4.6 mph - N/A   Unknown